User: anonymous   Login
Location: Innsbruck
(47.2657°N, 11.3914°E)
Time: 04:38:29
(UTC+01:00)
Language:

METEOR M2 - Orbit

View from above orbital plane
View from above orbital plane
View from above satellite
View from above satellite

Ground track
Ground track

The orbit data is extracted from the following two-line orbital elements,

1 40069U 14037A   21332.88562345 -.00000022  00000-0  92309-5 0  9999
2 40069  98.4475 354.6941 0005697 173.3220 186.8028 14.20692241383384
Epoch (UTC): 28 November 2021 21:15:17
Eccentricity: 0.0005697
inclination: 98.4475°
perigee height: 819 km
apogee height: 827 km
right ascension of ascending node: 354.6941°
argument of perigee: 173.3220°
revolutions per day: 14.20692241
mean anomaly at epoch: 186.8028°
orbit number at epoch: 38338

The dashed part of the orbit path shows where the satellite is in the earth's shadow,  

DLR